• In Belarus
  • List of Countries
  • For 7 days
  • Water Temperature
  • Satellite Maps
  • Weather Map
  • Weather Widgets
  • user-avatar
    Login

    Hourly Weather Kaverino

    Today, 22 June, Friday

    Time Temperature Precipitation Wind Pressure Humidity
    00:00 +16°C° 0 mm 2 mps 741 mmHg 88%
    01:00 +16°C° 0 mm 2 mps 741 mmHg 88%
    02:00 +15°C° 0 mm 2 mps 741 mmHg 89%
    03:00 +16°C° 0 mm 1 mps 740 mmHg 90%
    04:00 +16°C° 0 mm 2 mps 740 mmHg 88%
    05:00 +17°C° 0 mm 2 mps 740 mmHg 86%
    06:00 +18°C° 0 mm 2 mps 740 mmHg 84%
    07:00 +20°C° 0 mm 3 mps 740 mmHg 79%
    08:00 +21°C° 0 mm 4 mps 740 mmHg 74%
    09:00 +25°C° 0 mm 4 mps 740 mmHg 67%
    10:00 +26°C° 0 mm 4 mps 740 mmHg 64%
    11:00 +27°C° 0 mm 5 mps 740 mmHg 62%
    12:00 +27°C° 0 mm 5 mps 739 mmHg 59%
    13:00 +28°C° 0 mm 5 mps 739 mmHg 59%
    14:00 +28°C° 0 mm 5 mps 739 mmHg 58%
    15:00 +28°C° 0 mm 5 mps 739 mmHg 58%
    16:00 +28°C° 0 mm 5 mps 739 mmHg 62%
    17:00 +28°C° 0 mm 4 mps 739 mmHg 65%
    18:00 +27°C° 0 mm 4 mps 738 mmHg 69%
    19:00 +26°C° 0.1 mm 3 mps 738 mmHg 75%
    20:00 +24°C° 0.1 mm 3 mps 738 mmHg 81%
    21:00 +22°C° 0.1 mm 3 mps 738 mmHg 87%
    22:00 +21°C° 0.1 mm 3 mps 739 mmHg 89%
    23:00 +20°C° 0.1 mm 3 mps 739 mmHg 91%

    Tomorrow, 23 June, Saturday

    Time Temperature Precipitation Wind Pressure Humidity
    00:00 +19°C° 0.1 mm 2 mps 739 mmHg 93%
    01:00 +19°C° 0 mm 2 mps 739 mmHg 94%
    02:00 +19°C° 0 mm 2 mps 739 mmHg 94%
    03:00 +18°C° 0 mm 2 mps 739 mmHg 95%
    04:00 +19°C° 0.2 mm 2 mps 739 mmHg 94%
    05:00 +19°C° 0.2 mm 2 mps 739 mmHg 93%
    06:00 +19°C° 0.2 mm 2 mps 739 mmHg 92%
    07:00 +21°C° 0.4 mm 2 mps 739 mmHg 88%
    08:00 +22°C° 0.4 mm 3 mps 739 mmHg 83%
    09:00 +25°C° 0.4 mm 3 mps 739 mmHg 79%
    10:00 +25°C° 0.6 mm 4 mps 739 mmHg 75%
    11:00 +26°C° 0.6 mm 4 mps 739 mmHg 71%
    12:00 +27°C° 0.6 mm 5 mps 739 mmHg 67%
    13:00 +28°C° 0.6 mm 5 mps 738 mmHg 65%
    14:00 +28°C° 0.6 mm 5 mps 738 mmHg 64%
    15:00 +29°C° 0.6 mm 5 mps 738 mmHg 62%
    16:00 +28°C° 0.5 mm 4 mps 738 mmHg 68%
    17:00 +27°C° 0.5 mm 4 mps 738 mmHg 74%
    18:00 +26°C° 0.5 mm 3 mps 737 mmHg 80%
    19:00 +25°C° 0.1 mm 3 mps 737 mmHg 82%
    20:00 +22°C° 0.1 mm 3 mps 737 mmHg 84%
    21:00 +21°C° 0.1 mm 3 mps 737 mmHg 85%
    22:00 +21°C° 0.2 mm 3 mps 737 mmHg 87%
    23:00 +20°C° 0.2 mm 4 mps 736 mmHg 88%

    Day after tomorrow, 24 June, Sunday

    Time Temperature Precipitation Wind Pressure Humidity
    00:00 +20°C° 0.2 mm 4 mps 736 mmHg 90%
    01:00 +20°C° 0.3 mm 4 mps 736 mmHg 89%
    02:00 +20°C° 0.3 mm 5 mps 736 mmHg 88%
    03:00 +20°C° 0.3 mm 5 mps 736 mmHg 87%
    04:00 +20°C° 0.1 mm 5 mps 736 mmHg 86%
    05:00 +20°C° 0.1 mm 5 mps 736 mmHg 84%
    06:00 +20°C° 0.1 mm 5 mps 735 mmHg 82%
    07:00 +20°C° 0.1 mm 5 mps 736 mmHg 82%
    08:00 +20°C° 0.1 mm 5 mps 736 mmHg 82%
    09:00 +21°C° 0.1 mm 5 mps 736 mmHg 82%
    10:00 +19°C° 0.6 mm 5 mps 737 mmHg 85%
    11:00 +17°C° 0.6 mm 5 mps 737 mmHg 88%
    12:00 +16°C° 0.6 mm 5 mps 738 mmHg 91%
    13:00 +15°C° 0.5 mm 4 mps 738 mmHg 89%
    14:00 +15°C° 0.5 mm 4 mps 739 mmHg 87%
    15:00 +15°C° 0.5 mm 4 mps 739 mmHg 85%
    16:00 +16°C° 0 mm 3 mps 740 mmHg 82%
    17:00 +17°C° 0 mm 3 mps 740 mmHg 79%
    18:00 +17°C° 0 mm 3 mps 740 mmHg 76%
    19:00 +16°C° 0 mm 3 mps 741 mmHg 80%
    20:00 +15°C° 0 mm 2 mps 741 mmHg 83%
    21:00 +14°C° 0 mm 1 mps 741 mmHg 87%
    22:00 +13°C° 0 mm 1 mps 742 mmHg 88%
    23:00 +12°C° 0 mm 1 mps 742 mmHg 89%

    25 June, Monday

    Time Temperature Precipitation Wind Pressure Humidity
    00:00 +12°C° 0 mm 1 mps 742 mmHg 91%
    01:00 +12°C° 0 mm 1 mps 743 mmHg 91%
    02:00 +11°C° 0 mm 1 mps 743 mmHg 91%
    03:00 +11°C° 0 mm 1 mps 743 mmHg 91%
    04:00 +12°C° 0 mm 1 mps 744 mmHg 89%
    05:00 +13°C° 0 mm 1 mps 744 mmHg 87%
    06:00 +14°C° 0 mm 1 mps 744 mmHg 84%
    07:00 +15°C° 0 mm 1 mps 744 mmHg 78%
    08:00 +18°C° 0 mm 1 mps 744 mmHg 73%
    09:00 +20°C° 0 mm 1 mps 744 mmHg 67%
    10:00 +21°C° 0 mm 1 mps 744 mmHg 64%
    11:00 +20°C° 0 mm 2 mps 744 mmHg 60%
    12:00 +21°C° 0 mm 2 mps 744 mmHg 57%
    13:00 +23°C° 0.1 mm 2 mps 744 mmHg 57%
    14:00 +23°C° 0.1 mm 2 mps 744 mmHg 56%
    15:00 +23°C° 0.1 mm 2 mps 744 mmHg 56%
    16:00 +23°C° 0.2 mm 2 mps 744 mmHg 58%
    17:00 +23°C° 0.2 mm 2 mps 744 mmHg 61%
    18:00 +21°C° 0.2 mm 2 mps 744 mmHg 64%
    19:00 +20°C° 0.1 mm 2 mps 744 mmHg 70%
    20:00 +19°C° 0.1 mm 1 mps 744 mmHg 76%
    21:00 +16°C° 0.1 mm 1 mps 745 mmHg 81%
    22:00 +16°C° 0 mm 1 mps 745 mmHg 83%
    23:00 +15°C° 0 mm 1 mps 745 mmHg 85%

    26 June, Tuesday

    Time Temperature Precipitation Wind Pressure Humidity
    00:00 +14°C° 0 mm 1 mps 745 mmHg 86%
    01:00 +14°C° 0 mm 1 mps 745 mmHg 88%
    02:00 +13°C° 0 mm 1 mps 745 mmHg 89%
    03:00 +13°C° 0 mm 1 mps 745 mmHg 90%
    04:00 +13°C° 0 mm 1 mps 745 mmHg 89%
    05:00 +14°C° 0 mm 1 mps 745 mmHg 87%
    06:00 +15°C° 0 mm 1 mps 745 mmHg 86%
    07:00 +16°C° 0 mm 1 mps 745 mmHg 80%
    08:00 +19°C° 0 mm 1 mps 745 mmHg 74%
    09:00 +21°C° 0 mm 1 mps 745 mmHg 68%
    10:00 +20°C° 0.1 mm 2 mps 745 mmHg 64%
    11:00 +21°C° 0.1 mm 2 mps 745 mmHg 61%
    12:00 +23°C° 0.1 mm 2 mps 745 mmHg 57%
    13:00 +22°C° 0.3 mm 3 mps 744 mmHg 58%
    14:00 +22°C° 0.3 mm 3 mps 744 mmHg 59%
    15:00 +22°C° 0.3 mm 3 mps 744 mmHg 61%
    16:00 +22°C° 0.1 mm 3 mps 744 mmHg 62%
    17:00 +23°C° 0.1 mm 2 mps 744 mmHg 63%
    18:00 +23°C° 0.1 mm 2 mps 744 mmHg 64%
    19:00 +20°C° 0 mm 2 mps 744 mmHg 70%
    20:00 +18°C° 0 mm 2 mps 744 mmHg 77%
    21:00 +16°C° 0 mm 1 mps 744 mmHg 83%
    22:00 +16°C° 0 mm 1 mps 744 mmHg 85%
    23:00 +15°C° 0 mm 1 mps 744 mmHg 87%

    27 June, Wednesday

    Time Temperature Precipitation Wind Pressure Humidity
    00:00 +14°C° 0 mm 1 mps 744 mmHg 89%
    01:00 +14°C° 0 mm 1 mps 744 mmHg 90%
    02:00 +13°C° 0 mm 1 mps 744 mmHg 91%
    03:00 +13°C° 0 mm 1 mps 743 mmHg 91%
    04:00 +13°C° 0 mm 0 mps 744 mmHg 89%
    05:00 +13°C° 0 mm 0 mps 744 mmHg 87%
    06:00 +14°C° 0 mm 0 mps 744 mmHg 84%
    07:00 +16°C° 0 mm 0 mps 744 mmHg 78%
    08:00 +18°C° 0 mm 0 mps 744 mmHg 72%
    09:00 +22°C° 0 mm 1 mps 744 mmHg 66%
    10:00 +23°C° 0 mm 1 mps 744 mmHg 62%
    11:00 +24°C° 0 mm 1 mps 744 mmHg 57%
    12:00 +24°C° 0 mm 1 mps 743 mmHg 53%
    13:00 +25°C° 0 mm 1 mps 743 mmHg 52%
    14:00 +25°C° 0 mm 1 mps 743 mmHg 52%
    15:00 +25°C° 0 mm 1 mps 743 mmHg 51%
    16:00 +25°C° 0 mm 1 mps 743 mmHg 54%
    17:00 +25°C° 0 mm 1 mps 743 mmHg 57%
    18:00 +24°C° 0 mm 1 mps 742 mmHg 60%
    19:00 +23°C° 0.3 mm 1 mps 742 mmHg 66%
    20:00 +21°C° 0.3 mm 1 mps 742 mmHg 71%
    21:00 +19°C° 0.3 mm 1 mps 742 mmHg 76%
    22:00 +19°C° 0.1 mm 1 mps 742 mmHg 79%
    23:00 +18°C° 0.1 mm 1 mps 742 mmHg 81%
    Show more